Location: Fertile
(43.2644°N, 93.4183°W)
Time: 01:15:33
(UTC+00:00)

Daily predictions for brighter satellites

Satellite Brightness Start Highest point End
(mag) Time Altitude Azimuth Time Altitude Azimuth Time Altitude Azimuth
Cosmos 468 Rocket 4.4 02:24:19 10° N 02:29:25 50° ENE 02:34:25 10° SE
CZ-4 R/B 3.6 02:28:24 10° SSW 02:31:37 24° W 02:34:54 10° NW
Ariane Rocket 4.5 02:28:24 10° ESE 02:32:20 23° ENE 02:36:17 10° NNE
CZ-4B R/B 4.1 02:27:43 10° S 02:32:47 48° W 02:37:58 10° NNW
KORONAS-FOTON 3.7 02:31:28 10° S 02:35:08 64° E 02:38:50 10° NNE
IRIDIUM 106 4.4 02:34:05 10° N 02:39:20 85° E 02:44:33 10° S
Cosmos 1842 3.0 02:37:10 10° S 02:40:48 83° E 02:44:28 10° N
ATLAS 2AS CENTAUR R/B 4.0 02:36:54 10° NNW 02:42:48 29° NE 02:48:30 10° E
Cosmos 2360 Rocket 3.7 02:42:35 10° N 02:47:05 24° NE 02:51:34 10° ESE
Cosmos 540 Rocket 3.5 02:43:44 10° NNW 02:48:55 82° ENE 02:54:03 10° SSE
IRS-1C Rocket 4.3 02:45:56 10° SSE 02:51:05 61° ENE 02:56:16 10° N
In-Cosmos 22 4.4 02:46:01 10° SSE 02:51:28 51° E 02:56:47 10° NNE
RESURS DK-1 3.8 02:48:47 10° N 02:52:14 26° NE 02:55:35 10° ESE
SPOT 3 Rocket 4.5 02:51:37 11° SE 02:56:00 34° ENE 03:00:37 10° N
SL-16 R/B 2.6 02:52:47 10° NNW 02:58:21 52° ENE 03:03:14 13° SE
Cosmos 2333 Rocket 3.6 02:55:24 10° N 03:00:15 27° NE 03:05:06 10° ESE
Cosmos 2082 Rocket 3.6 02:54:56 10° SW 03:00:21 44° WNW 03:05:49 10° NNE
MOS 1 Rocket 4.2 02:59:27 12° SE 03:04:02 43° ENE 03:09:02 10° N
Okean-O 3.2 02:59:48 10° S 03:04:08 57° W 03:08:29 10° NNW
Cosmos 1954 Rocket 4.4 02:59:37 10° SSW 03:04:53 70° WNW 03:10:10 10° NNE
Cosmos 1707 3.1 03:02:14 10° SSW 03:05:48 61° W 03:09:23 10° N
SeaSat 1 2.6 03:02:21 13° SE 03:06:37 63° ENE 03:11:29 10° NNW
Cosmos 1758 4.5 03:04:34 10° NNE 03:07:57 27° ENE 03:10:18 16° SE
Atlas Centaur 2 3.8 03:01:20 10° WSW 03:08:19 32° S 03:14:19 14° SE
CZ-4C R/B 3.9 03:06:55 10° N 03:11:03 65° WNW 03:15:06 10° SSW
USA 245 3.3 03:10:21 16° SSE 03:12:55 65° ENE 03:17:09 10° N
Cosmos 676 Rocket 4.4 03:10:39 10° SSW 03:15:56 69° WNW 03:21:16 10° NNE
SPOT 5 3.0 03:14:26 10° S 03:18:40 59° W 03:23:00 10° NNW
IRS-1A Rocket 4.3 03:14:38 11° SSE 03:19:58 80° WSW 03:25:30 10° NNW
SL-08 ROCKET BODY 4.4 03:15:35 10° S 03:21:41 71° E 03:27:43 10° NNE
Tiangong -0.6 03:19:06 10° W 03:21:41 23° SSW 03:22:45 19° S
Cosmos 2228 Rocket 3.6 03:18:36 16° SSE 03:21:50 42° E 03:26:09 10° NNE
Okean O Rocket 4.0 03:21:25 10° SW 03:24:33 19° W 03:27:41 10° NW
Cosmos 1869 Rocket 3.6 03:22:10 10° N 03:26:37 81° W 03:30:18 15° S
SL-4 R/B 4.2 03:23:40 10° WNW 03:26:52 24° N 03:30:13 10° NE
Meteor 1-12 Rocket 4.5 03:22:25 10° N 03:28:26 66° ENE 03:32:55 18° SSE
Cosmos 1356 Rocket 3.8 03:25:56 19° SSE 03:28:36 45° E 03:32:38 10° NNE
S3M 4.0 03:22:52 10° N 03:29:17 85° E 03:34:40 15° S
EXPRESS MD2 4.5 03:29:21 10° W 03:31:53 27° NNW 03:33:53 10° NE
Cosmos 1400 Rocket 2.7 03:28:44 10° SSW 03:32:36 83° W 03:36:29 10° N
ERS-1 Rocket 3.2 03:30:43 14° S 03:34:59 71° WSW 03:40:01 10° NNW
Meteor 1-22 Rocket 4.3 03:31:25 10° NNW 03:37:06 84° W 03:41:50 16° S
Cosmos 841 Rocket 3.5 03:33:05 10° NNW 03:38:23 85° WSW 03:41:59 21° SSE
Cosmos 2266 Rocket 4.2 03:32:16 10° S 03:38:35 80° W 03:45:02 10° N
Cosmos 1980 Rocket 4.5 03:35:26 10° WNW 03:39:06 18° W 03:42:46 10° SW
Cosmos 1655 Rocket 4.0 03:34:27 12° S 03:40:27 75° E 03:46:51 10° N
ATLAS CENTAUR R/B 0.8 03:37:32 10° SSW 03:40:59 75° ESE 03:44:33 10° NE
Cosmos 2322 Rocket 2.3 03:35:38 10° NNW 03:41:20 71° ENE 03:44:58 23° SE
Cosmos 1300 2.6 03:38:10 10° N 03:41:42 62° E 03:43:15 30° SSE
Timation 1 Rocket 4.4 03:38:25 10° SSW 03:44:23 81° WNW 03:50:22 10° NNE
Spot 2 Rocket 3.6 03:42:27 19° S 03:46:10 75° WSW 03:51:16 10° NNW
USA 234 3.6 03:42:44 10° NE 03:49:13 71° NW 03:55:43 10° WSW
Aureole 3 3.8 03:48:02 30° SE 03:49:35 46° E 03:54:01 10° NNE
Cosmos 1315 Rocket 3.9 03:49:43 25° ESE 03:50:32 27° E 03:53:56 10° NNE
Meteor 2-10 Rocket 3.7 03:47:19 10° NNW 03:52:54 80° W 03:56:28 22° S
Cosmos 2278 4.5 03:47:34 10° NW 03:53:00 46° WSW 03:57:04 17° S
Cosmos 1953 3.7 03:50:34 10° NNE 03:53:39 23° ENE 03:54:38 20° E
Cosmos 1862 Rocket 3.5 03:55:14 25° S 03:57:42 75° E 04:02:08 10° NNE
Terra 2.5 03:54:54 17° SSW 03:58:19 47° W 04:02:53 10° NNW
Meteor 1-21 4.2 03:54:03 18° S 03:58:29 79° E 04:04:20 10° NNE
Cosmos 807 4.2 03:59:20 36° S 04:00:34 87° E 04:03:37 10° N
Landsat 5 3.3 03:59:46 10° NNE 04:03:49 81° ESE 04:05:57 28° S
COSMOS 2428 4.3 04:00:51 10° N 04:05:27 24° NE 04:09:13 13° E
Cosmos 2219 Rocket 2.8 04:01:25 10° NNW 04:06:54 47° ENE 04:09:56 25° ESE
Okean 3 3.3 04:08:32 33° S 04:10:20 83° E 04:14:32 10° N
SL-27 R/B 2.8 04:09:25 28° SW 04:10:30 45° WNW 04:13:12 10° N
Ariane Rocket 3.7 04:07:33 19° SSW 04:10:56 47° W 04:15:52 10° NNW
BlueWalker 3 3.8 04:15:31 17° E 04:15:31 17° E 04:16:39 10° ENE
SL-14 R/B 4.3 04:12:43 16° SW 04:15:24 40° WNW 04:19:01 10° N
Cosmos 1707 Rocket 4.2 04:15:11 18° SSW 04:18:19 54° W 04:22:41 10° N
SJ 16-02 1.2 04:16:45 29° SSW 04:18:57 90° ESE 04:23:17 10° NNE
Meteor 1-4 Rocket 1.9 04:21:23 77° SW 04:21:32 83° WNW 04:24:32 10° N
H-2A R/B 4.2 04:22:54 19° E 04:24:15 23° ENE 04:27:35 10° NNE
Cosmos 1346 Rocket 3.5 04:21:11 10° NNW 04:24:52 44° W 04:26:15 31° SW
COSMOS 2455 3.9 04:24:42 24° ESE 04:25:18 25° ESE 04:30:04 10° NE
CZ-4C R/B 3.6 04:28:06 16° E 04:28:06 16° E 04:30:12 10° ENE
SL-08 R/B 4.5 04:25:30 31° SSE 04:28:24 65° E 04:34:27 10° NNE
DNEPR-1 R/B 4.4 04:22:37 10° NNW 04:29:14 68° NE 04:31:50 32° SE
RESURS DK-1 3.7 04:26:24 10° NW 04:29:56 29° WSW 04:31:10 24° SW
Cosmos 2360 Rocket 2.4 04:25:54 10° NNW 04:31:30 60° WSW 04:34:00 32° S
ARIANE 5 R/B 3.1 04:31:12 37° ESE 04:32:20 47° ENE 04:36:30 10° N
ATLAS 2AS CENTAUR R/B 2.6 04:27:34 10° NW 04:34:21 75° WSW 04:37:29 34° SSE
Cosmos 1932 4.5 04:31:57 10° SW 04:38:18 83° WNW 04:44:38 10° NNE
Cosmos 1733 Rocket 4.3 04:36:51 10° NNW 04:40:50 34° W 04:42:50 23° SW
SL-16 R/B 3.9 04:37:38 10° NW 04:42:03 24° WSW 04:45:05 15° SW
Cosmos 968 Rocket 4.4 04:37:18 10° SW 04:42:12 45° WNW 04:47:12 10° N
Cosmos 1455 1.8 04:40:26 10° N 04:43:57 82° E 04:44:05 79° ESE
SL-24 R/B - RUBIN 2 4.5 04:37:37 10° NNW 04:44:16 78° NE 04:47:01 35° SE
SeaSat 1 4.4 04:42:03 13° SW 04:44:25 18° WSW 04:47:46 10° WNW
Cosmos 2333 Rocket 2.7 04:39:15 10° NW 04:44:49 52° WSW 04:47:07 33° SSW
Cosmos 1242 Rocket 3.1 04:46:46 37° NNE 04:46:46 37° NNE 04:48:38 10° NNE
USA 281 3.2 04:45:41 33° SE 04:48:52 75° ENE 04:55:27 10° NNW
Okean 1-7 3.4 04:47:58 36° SW 04:49:30 60° W 04:53:47 10° N
CZ-2C R/B 3.8 04:50:22 37° SE 04:52:12 60° ENE 05:09:52 10° N
GP-B 3.0 04:48:06 10° N 04:52:32 79° E 04:53:24 57° SSE
Cosmos 1814 Rocket 4.4 04:48:36 10° NNW 04:53:46 54° WSW 04:55:33 37° SSW
GENESIS II 3.9 04:54:34 82° E 04:54:34 82° E 04:58:08 10° NE
Cosmos 1908 Rocket 3.5 04:50:27 10° N 04:54:48 78° W 04:55:38 56° SSW
Atlas Centaur 2 4.1 04:50:29 10° WSW 04:56:31 23° SSW 04:56:31 23° SSW
Cosmos 1782 Rocket 3.7 04:53:18 10° N 04:57:34 56° E 04:58:10 51° ESE
Cosmos 1408 3.7 05:03:04 27° NE 05:03:04 27° NE 05:04:47 10° NNE
Cosmos 2237 Rocket 3.7 05:01:16 10° N 05:06:08 28° NE 05:09:20 17° E
SL-4 R/B 3.7 05:02:50 10° NW 05:06:27 32° NNE 05:10:16 10° E
Cosmos 2322 3.6 05:02:59 10° NNW 05:08:43 82° ENE 05:10:30 46° SSE
Cosmos 839 Rocket 4.2 05:03:33 10° NW 05:10:06 58° WSW 05:12:09 40° S
Cosmos 2227 Rocket 3.9 05:10:41 17° E 05:10:49 17° E 05:14:21 10° ENE
Cosmos 1745 Rocket 4.0 05:08:42 40° S 05:11:14 85° E 05:17:37 10° N
Cosmos 2208 Rocket 4.0 05:07:35 10° NNW 05:12:47 70° ENE 05:14:06 48° SE
H-2A R/B 4.0 05:12:12 10° NE 05:14:25 16° E 05:14:25 16° E
Cosmos 1300 Rocket 3.4 05:11:43 10° N 05:16:02 74° E 05:16:26 67° SE
ATLAS CENTAUR R/B 4.2 05:17:32 10° WNW 05:19:07 12° NW 05:20:44 10° N
Nadezhda 1 Rocket 4.0 05:15:59 10° N 05:22:16 76° W 05:24:27 43° S
ALOS 2 2.9 05:23:09 51° ESE 05:23:44 56° ENE 05:28:03 10° N
Cosmos 2322 Rocket 4.1 05:21:11 10° WNW 05:24:41 17° W 05:26:46 14° WSW
PSLV R/B 4.4 05:21:27 10° N 05:25:20 51° WNW 05:26:00 45° WSW
BREEZE-M DEB (TANK) 4.4 05:15:36 10° W 05:28:08 49° N 05:31:50 10° ENE
Cosmos 1953 3.9 05:26:17 10° NW 05:29:23 24° W 05:29:44 23° W
Cosmos 2297 Rocket 2.5 05:29:40 45° SE 05:30:27 48° ESE 05:35:52 10° NE
CZ-3 Stage 3 4.1 05:04:26 10° W 05:32:43 40° SSW 05:35:53 34° S
CENTAUR R/B 3.7 05:33:38 22° ESE 05:33:39 22° ESE 05:38:22 10° ENE
Meteor 2-5 Rocket 3.8 05:41:48 50° SSE 05:43:20 73° E 05:49:11 10° NNE
Cosmos 1486 Rocket 4.0 05:46:25 49° SW 05:47:46 73° WNW 05:52:59 10° NNE
Cosmos 2242 Rocket 3.9 05:48:16 54° WSW 05:48:56 60° W 05:53:28 10° N
COSMOS 2428 2.9 05:44:29 10° NNW 05:50:05 59° WSW 05:51:11 49° SSW
Cosmos 2219 Rocket 3.5 05:45:53 10° NW 05:50:32 27° WSW 05:51:37 25° WSW
Cosmos 371 Rocket 3.2 05:50:32 61° SW 05:51:20 78° WNW 05:56:11 10° NNE
BlueWalker 3 3.0 05:49:45 26° W 05:51:24 42° NNW 05:54:59 10° NE
Sich 1 Rocket 4.4 05:47:21 10° N 05:51:29 39° ENE 05:51:57 38° E
Cosmos 405 Rocket 3.1 05:51:48 10° N 05:55:13 55° NE 05:55:13 55° NE
SJ 16-02 4.3 05:57:18 10° WNW 05:57:58 10° NW 05:58:38 10° NW
H-2A R/B 3.5 05:58:52 35° W 05:58:58 35° W 06:02:53 10° NNW
Cosmos 1354 Rocket 4.0 06:01:44 60° SSE 06:02:33 72° ESE 06:07:51 10° NNE
Cosmos 2263 Rocket 3.9 06:03:48 17° ESE 06:04:23 18° E 06:07:58 10° ENE
NOSS 0 Rocket 4.0 06:02:21 10° NNW 06:08:31 65° WSW 06:10:02 49° SSW
COSMOS 2455 3.3 06:07:47 29° WSW 06:10:47 58° NW 06:16:46 10° NNE
CZ-4C R/B 2.3 06:13:08 39° WSW 06:14:37 57° NW 06:20:05 10° NNE
Cosmos 1703 4.3 06:15:08 35° WNW 06:15:08 35° WNW 06:18:24 10° N
NOSS 3-2 (A) 4.2 06:18:59 28° ESE 06:19:03 28° ESE 06:23:53 10° NE
Cosmos 1892 3.0 06:24:40 56° N 06:24:40 56° N 06:27:31 10° N
Cosmos 2184 Rocket 4.0 06:22:41 47° SSE 06:24:34 73° E 06:30:57 10° NNE
PSLV R/B 3.8 06:23:14 10° N 06:27:21 53° WNW 06:27:40 51° W
Okean 1 Rocket 3.2 06:23:17 10° N 06:27:37 61° E 06:27:57 58° ESE
Cosmos 2098 Rocket 4.3 06:24:12 10° NNW 06:30:39 56° W 06:32:30 42° SW
Cosmos 2154 Rocket 4.0 06:39:30 47° S 06:41:24 79° E 06:47:42 10° N
SL-16 R/B 3.0 06:37:46 10° NNW 06:43:18 48° ENE 06:46:35 23° ESE
Cosmos 332 Rocket 3.9 06:44:02 55° WSW 06:44:54 67° WNW 06:49:48 10° NNE
SL-4 R/B 2.1 06:41:24 10° WNW 06:45:07 69° W 06:45:07 69° W
BREEZE-M DEB (TANK) 4.1 06:44:24 10° NNW 06:49:10 - E 06:45:51 18° NNE
Cosmos 990 Rocket 3.8 06:48:20 61° S 06:49:13 80° ESE 06:54:22 10° NNE
Cosmos 2237 Rocket 2.5 06:44:58 10° NW 06:50:24 48° WSW 06:51:07 45° SW
Cosmos 1975 Rocket 4.0 06:49:56 34° ESE 06:50:29 36° E 06:54:30 10° NNE
H-2A R/B 2.6 06:46:42 10° N 06:50:46 45° WNW 06:51:12 43° W
Cosmos 2082 4.3 06:51:06 37° SE 06:52:17 42° ESE 06:57:33 10° NE
Cosmos 2227 Rocket 2.3 06:52:28 45° SW 06:54:11 70° WNW 06:59:52 10° NNE
Cosmos 2084 Rocket 4.3 06:54:18 36° W 06:55:20 43° NW 06:59:20 10° NNE
IDEFIX/ARIANE 42P 4.4 06:51:40 10° NE 06:55:28 20° E 06:57:28 16° ESE
Cosmos 1825 3.2 06:56:41 33° NW 06:56:41 33° NW 06:59:22 10° N
Cosmos 2151 Rocket 4.5 06:54:22 10° NNW 06:58:22 34° W 06:58:23 34° W
Cosmos 1980 4.4 06:58:18 10° NW 07:03:23 35° WSW 07:03:53 34° WSW
GEOS 3 Rocket 3.9 06:59:10 10° NNE 07:04:16 61° NW 07:06:16 35° WSW
Cosmos 1455 Rocket 3.3 07:00:27 10° N 07:04:52 64° E 07:05:42 52° SE
CZ-2D R/B 4.2 07:01:37 10° NE 07:05:04 17° E 07:07:38 13° ESE
Okean 2 Rocket 4.1 07:01:05 10° NNW 07:05:05 33° W 07:05:12 33° W
Cosmos 1538 Rocket 3.9 07:01:30 10° NNW 07:06:44 86° ENE 07:08:16 47° SSE
Meteor 1-21 Rocket 4.2 07:07:55 48° S 07:09:39 89° E 07:15:24 10° N
Cosmos 2297 Rocket 3.7 07:11:26 17° W 07:14:42 28° NW 07:19:32 10° N
Cosmos 2219 3.1 07:15:09 47° SSW 07:16:52 83° WNW 07:22:31 10° NNE
Cosmos 1025 Rocket 3.3 07:17:45 51° WSW 07:18:13 54° W 07:22:28 10° N
Cosmos 1606 4.0 07:15:52 10° NNE 07:19:05 31° ENE 07:19:53 27° ESE
CENTAUR R/B 2.7 07:20:44 33° WSW 07:23:23 64° NW 07:30:19 10° NNE
Cosmos 372 Rocket 4.2 07:22:07 45° SSE 07:23:33 63° ESE 07:28:43 10° NNE
Aureole 1 Rocket 2.5 07:23:52 76° W 07:23:56 76° WNW 07:28:07 10° NNE
TIMED 4.4 07:27:36 60° SW 07:28:15 73° WNW 07:32:35 10° NNE
Cosmos 2341 Rocket 4.0 07:27:49 36° S 07:30:28 75° E 07:36:41 10° N
ADEOS II 4.1 07:27:20 10° NE 07:31:05 20° E 07:34:19 12° SE
Helios 1A Rocket 2.5 07:33:25 74° SSW 07:33:42 81° WSW 07:37:30 10° NNW
CRYOSAT 2 4.3 07:28:49 10° N 07:33:44 79° W 07:35:03 49° SSW
Cosmos 923 Rocket 4.2 07:29:31 10° NNW 07:34:47 67° ENE 07:37:48 25° SE
Cosmos 1461 2.8 07:36:27 58° SE 07:36:45 61° ESE 07:40:36 10° NE
Meteor 2-1 Rocket 4.3 07:33:56 10° N 07:39:52 87° E 07:42:41 33° SSE
Cosmos 1937 Rocket 3.5 07:38:33 43° S 07:40:18 76° ESE 07:45:33 10° NNE
MOZ.5/SAFIR/RUBIN 5/SL-8 3.8 07:39:56 37° SSE 07:41:46 77° ENE 07:46:25 10° N
Cosmos 1898 Rocket 3.5 07:42:11 43° SW 07:43:53 74° WNW 07:49:04 10° NNE
Resurs 1-4 Rocket 3.0 07:39:46 10° NNE 07:44:44 41° E 07:47:22 24° SSE
Cosmos 2263 Rocket 2.3 07:45:28 37° SW 07:47:40 67° WNW 07:53:14 10° NNE
Cosmos 1821 Rocket 4.3 08:00:01 23° SSE 08:03:47 62° E 08:09:50 10° NNE
CZ-4C R/B 4.5 08:01:19 10° WNW 08:04:31 16° NNW 08:08:08 10° NNE
Cosmos 1869 3.1 08:01:58 10° NNW 08:05:37 63° W 08:06:12 53° SW
Cosmos 2218 Rocket 4.0 08:03:35 31° SSW 08:06:44 75° W 08:12:57 10° N
Cosmos 1844 Rocket 3.7 08:04:20 20° SSE 08:07:29 37° ESE 08:12:34 10° NE
NOSS 3-2 (A) 3.9 08:06:19 22° WSW 08:09:27 46° NW 08:15:23 10° NNE
ALOS 4.2 08:06:07 10° NE 08:09:46 23° E 08:13:24 10° SE
Cosmos 2366 rocket 4.1 08:10:21 30° SSW 08:13:35 64° W 08:19:48 10° N
Cosmos 1437 Rocket 3.3 08:12:41 29° SSE 08:14:16 49° E 08:17:57 10° NNE
NOSS 3-2 (C) 3.1 08:12:44 32° SW 08:15:17 85° NW 08:21:24 10° NE
Cosmos 1544 Rocket 3.7 08:12:06 10° NNW 08:16:29 59° W 08:18:04 36° SSW
Cosmos 1680 Rocket 3.4 08:11:46 10° NNW 08:16:58 72° WSW 08:20:15 23° S
Cosmos 2112 Rocket 3.9 08:14:03 10° NNW 08:19:15 82° WSW 08:23:05 18° SSE
Cosmos 1818 3.5 08:14:02 10° NW 08:19:30 71° WSW 08:24:48 10° SSE
Cosmos 2228 2.9 08:15:47 10° NNW 08:20:06 73° W 08:21:59 32° S
USA 267 3.9 08:14:07 10° ENE 08:20:14 41° SE 08:24:01 22° S
MSX 3.8 08:16:26 10° NNE 08:22:11 84° WNW 08:25:33 26° SSW
COSMOS 2441 4.5 08:21:33 10° NNE 08:26:22 73° ESE 08:29:13 25° S
SL-16 R/B 3.2 08:22:28 10° NW 08:27:04 26° WSW 08:28:24 24° SW
Cosmos 1603 4.0 08:26:31 10° NNW 08:32:17 70° ENE 08:37:58 10° SSE
H-2A R/B 3.7 08:30:22 10° N 08:34:15 52° WNW 08:35:54 30° SW
IDEFIX/ARIANE 42P 2.9 08:30:11 10° N 08:35:17 54° WNW 08:38:13 25° SW
SL-16 R/B 3.0 08:31:03 10° SSE 08:37:12 64° ENE 08:43:22 10° N
Cosmos 2227 Rocket 4.5 08:36:32 10° WNW 08:39:19 14° NW 08:42:06 10° NNW
CZ-2C R/B 2.7 08:37:16 21° S 08:40:47 59° W 08:46:06 10° NNW
CZ-2C R/B 3.1 08:36:04 10° N 08:41:30 80° WNW 08:44:53 22° SSW
Cosmos 1943 3.2 08:36:34 10° NNW 08:42:07 63° WSW 08:47:38 10° S
CZ-2D R/B 2.2 08:40:15 10° N 08:45:32 63° WNW 08:48:56 22° SSW
FENGYUN 3A 3.6 08:43:27 10° NNE 08:48:52 88° WNW 08:52:54 18° SSW
Cosmos 1606 Rocket 3.6 08:47:35 10° N 08:52:03 87° E 08:56:15 11° S
Cosmos 921 Rocket 2.9 08:48:34 10° NNW 08:52:49 83° ENE 08:56:59 10° SSE
Cosmos 1606 4.4 08:51:20 10° NW 08:53:29 15° W 08:53:51 15° W
Cosmos 1048 Rocket 4.4 08:48:28 10° NNW 08:53:40 67° ENE 08:58:55 10° SSE
ASTEX 1 3.3 08:52:22 12° S 08:56:56 88° W 09:01:50 10° N
Cosmos 1536 Rocket 4.4 08:55:28 21° SW 08:57:46 35° WNW 09:01:52 10° N
Cosmos 1125 Rocket 4.1 08:57:57 12° S 09:02:39 55° ESE 09:07:49 10° NNE
CZ-2C R/B 4.3 08:59:32 10° NE 09:03:10 23° E 09:06:49 10° SSE
Orbus 7S? 3.5 09:01:32 10° WNW 09:04:35 54° SW 09:10:12 10° SSE
Cosmos 1727 Rocket 4.3 08:58:52 10° NNW 09:04:56 50° W 09:10:22 13° SSW
Cosmos 1867 3.7 09:01:14 19° SW 09:05:12 70° NW 09:10:43 10° NNE
Cosmos 1726 Rocket 3.5 09:03:05 10° N 09:07:33 86° W 09:11:57 10° S
Cosmos 1238 Rocket 4.3 09:04:38 10° NNE 09:07:39 29° ENE 09:10:23 10° SE
Cosmos 494 Rocket 4.0 09:04:27 10° NNW 09:09:39 65° WSW 09:14:50 10° S
Cosmos 1812 3.0 09:07:08 10° N 09:10:41 62° E 09:14:12 10° SSE
ADEOS II 2.4 09:05:54 10° N 09:11:01 55° WNW 09:15:10 15° SW
Iridium 2 2.4 09:09:46 21° S 09:11:13 88° W 09:13:42 10° N
IRAS Rocket 4.3 09:09:48 10° NNE 09:15:18 77° ESE 09:20:48 10° SSW
Cosmos 2058 3.2 09:12:34 10° S 09:16:33 63° E 09:20:35 10° NNE
SAR-Lupe-4 3.5 09:15:52 10° NNE 09:19:26 87° WNW 09:22:35 13° SSW
Cosmos 1844 3.9 09:15:24 15° SW 09:20:12 68° WNW 09:26:01 10° NNE
USA 238 DEB 3.8 09:16:15 14° SW 09:21:34 60° NW 09:28:15 10° NNE
USA 238 3.8 09:16:17 14° SW 09:21:36 60° NW 09:28:18 10° NNE
USA 81 4.1 09:16:49 10° N 09:22:07 89° E 09:27:23 10° S
Resurs 1-4 Rocket 3.3 09:19:55 10° N 09:24:20 28° WNW 09:28:26 11° WSW
Iridium 4 Rocket 3.4 09:22:23 10° N 09:26:51 77° E 09:31:41 10° S
ATLAS 5 CENTAUR R/B 3.0 09:26:45 10° SSE 09:29:15 21° ESE 09:31:52 10° ENE
Timation 2 Rocket 4.2 09:23:54 10° SSW 09:30:34 81° ESE 09:36:59 10° NNE
UNK 3.7 09:27:54 10° S 09:32:29 67° WSW 09:37:04 10° NNW
Cosmos 2263 Rocket 4.4 09:30:14 10° WNW 09:32:41 13° NW 09:35:09 10° NNW
Cosmos 724 4.3 09:31:21 10° NW 09:37:11 83° WSW 09:43:03 10° SSE
Meteor 1-28 Rocket 4.3 09:35:43 11° SSW 09:38:23 24° W 09:41:20 10° NW
NOAA 11 4.3 09:38:46 10° NNE 09:44:17 82° ESE 09:49:44 10° SSW
Cosmos 1544 2.1 09:42:51 10° SSW 09:45:27 76° W 09:48:05 10° N
Cosmos 2058 Rocket 3.1 09:41:24 10° NNW 09:45:48 63° W 09:50:07 10° S
Cosmos 1892 Rocket 4.3 09:42:47 10° SW 09:46:52 37° WNW 09:51:00 10° N
ALOS 3.0 09:42:48 10° N 09:47:04 38° WNW 09:51:19 10° SW
Cosmos 1844 Rocket 3.6 09:46:18 10° WSW 09:51:21 34° NW 09:56:25 10° N
METEOR-M 4.2 09:46:09 10° NNE 09:51:31 80° WNW 09:56:51 10° SSW
Cosmos 1758 Rocket 4.4 09:47:37 10° S 09:51:55 52° E 09:56:12 10° NNE
Cosmos 2298 Rocket 4.1 09:50:29 10° SSW 09:55:48 89° ESE 10:01:11 10° NNE
BREEZE-M DEB (TANK) 4.4 09:54:42 10° SW 09:58:20 60° SE 10:11:24 10° ENE
Cosmos 1607 4.2 09:52:51 10° NW 09:58:55 48° WSW 10:04:52 10° S
USA 267 3.6 09:56:58 10° NE 10:03:25 64° NW 10:09:51 10° WSW
